Location: Tarleton Observatory
(32.2162°N, 98.0976°W)
Time: 19:01:18
(UTC-05:00)

Daily predictions for brighter satellites

Satellite Brightness Start Highest point End
(mag) Time Altitude Azimuth Time Altitude Azimuth Time Altitude Azimuth
Cosmos 614 Rocket 4.0 21:02:45 10° S 21:07:52 61° ESE 21:12:59 10° NNE
Helios 1B rocket 3.2 21:07:33 10° NNE 21:11:18 33° E 21:15:02 10° SSE
Cosmos 1867 3.9 21:06:24 10° S 21:11:32 46° ESE 21:16:44 10° NE
Cosmos 1954 Rocket 4.2 21:06:44 10° SSW 21:11:56 78° WNW 21:17:07 10° NNE
Milstar 3 Cent rocket 3.2 21:06:17 10° W 21:12:03 63° S 21:23:16 10° ESE
USA 186 1.2 21:10:08 10° SSE 21:12:26 49° ENE 21:14:38 10° N
SL-8 R/B 3.7 21:09:32 10° NW 21:14:19 87° SW 21:19:06 10° SE
Resurs 01 Rocket 1.7 21:10:07 10° S 21:14:30 83° WSW 21:18:55 10° NNW
Helios 1A 4.0 21:12:24 10° SE 21:16:00 29° ENE 21:19:36 10° NNE
Cosmos 2333 Rocket 2.5 21:11:25 10° NNW 21:17:03 71° WSW 21:22:37 10° S
Cosmos 1850 Rocket 4.2 21:13:39 10° S 21:18:38 51° ESE 21:23:39 10° NNE
Resurs 1-3 3.7 21:16:06 10° S 21:20:29 80° WSW 21:24:53 10° NNW
Lacrosse 4 Rocket 4.3 21:17:26 10° WSW 21:20:50 23° WNW 21:24:19 10° N
H-2A R/B 4.5 21:17:51 10° SSW 21:21:16 33° W 21:24:45 10° NNW
USA 234 3.9 21:15:59 10° ENE 21:21:41 31° SE 21:27:19 10° S
ERS-1 Rocket 4.5 21:21:58 10° ESE 21:25:36 20° ENE 21:29:13 10° NNE
H-2A ROCKET BODY 2.9 21:25:20 10° S 21:27:04 14° SE 21:29:49 10° ESE
Cosmos 1184 Rocket 2.7 21:25:11 10° S 21:28:31 82° E 21:31:53 10° N
Cosmos 1934 Rocket 4.4 21:27:55 10° NNW 21:33:59 66° W 21:39:58 10° S
Meteor 2-15 Rocket 4.4 21:28:36 10° S 21:34:38 78° E 21:40:43 10° N
Cosmos 1356 Rocket 4.3 21:30:59 10° SSE 21:34:41 31° E 21:38:28 10° NNE
Cosmos 2297 Rocket 3.7 21:32:38 10° SW 21:37:55 40° WNW 21:43:13 10° N
Cosmos 1842 Rocket 3.6 21:34:37 10° N 21:39:01 83° W 21:43:20 10° S
YAOGAN 6 3.3 21:38:47 15° SE 21:41:21 38° ENE 21:44:46 10° N
H-2A R/B 4.2 21:40:04 10° E 21:41:47 12° ENE 21:43:31 10° NE
Cosmos 1741 Rocket 4.0 21:38:47 10° SSW 21:44:07 90° WNW 21:49:27 10° NNE
SEDSat Delta rocket 4.3 21:41:20 10° W 21:45:16 28° SSW 21:47:53 15° SSE
Cosmos 2263 Rocket 3.9 21:46:57 12° E 21:47:05 12° E 21:49:20 10° ENE
Cosmos 1605 Rocket 4.2 21:42:07 10° N 21:48:24 76° W 21:54:44 10° S
NOSS 3-4 (A) 3.9 21:41:28 10° NNW 21:48:42 89° ENE 21:55:19 15° SSE
NOSS 3-4 (C) 3.9 21:41:34 10° NNW 21:48:48 88° ENE 21:55:23 15° SSE
Meteor 1-21 Rocket 4.4 21:44:48 10° SSE 21:50:18 51° E 21:55:43 10° NNE
ATLAS 5 CENTAUR R/B 3.0 21:46:30 10° SW 21:50:51 44° NW 21:55:33 10° NNE
Cosmos 1818 4.1 21:46:24 10° NNW 21:51:37 46° ENE 21:55:10 19° SE
Cosmos 1726 4.3 21:50:34 10° NE 21:51:45 11° ENE 21:52:04 11° E
Cosmos 1076 Rocket 3.6 21:49:19 10° S 21:53:34 55° E 21:57:50 10° NNE
Spot 1 3.9 21:53:03 15° SSE 21:56:20 83° ENE 22:00:31 10° N
Cosmos 1408 Rocket 4.2 21:55:01 20° SE 21:57:17 35° E 22:01:12 10° NNE
CZ-3B Rocket 4.5 21:58:51 10° SW 22:04:15 30° S 22:14:13 19° SE
Cosmos 1939 Rocket 3.4 22:00:38 12° S 22:04:17 58° W 22:08:16 10° NNW
CZ-4B DEB 2.6 22:03:01 26° S 22:04:32 79° W 22:07:30 10° NNW
Cosmos 1340 Rocket 4.4 22:02:31 10° SSW 22:06:13 36° WNW 22:09:58 10° N
Cosmos 1802 Rocket 4.3 22:02:29 10° N 22:08:23 47° E 22:11:49 24° SE
Cosmos 2237 Rocket 3.7 22:06:51 10° NW 22:11:48 32° WSW 22:16:44 10° SSW
Palapa 6 Rocket 4.3 22:07:48 10° WSW 22:12:09 25° S 22:13:13 23° SSE
Cosmos 2221 2.5 22:08:12 10° N 22:12:36 87° W 22:15:27 22° S
Envisat 4.1 22:08:48 10° S 22:13:33 41° W 22:18:20 10° NNW
Meteor 1-29 4.5 22:11:19 10° N 22:14:31 37° WNW 22:17:44 10° SW
Cosmos 1674 3.0 22:12:57 12° SSW 22:16:25 65° W 22:20:09 10° N
SAR-Lupe-4 4.2 22:18:00 23° S 22:20:00 53° W 22:23:31 10° NNW
GPS 2-05 Rocket1 2.3 22:20:45 10° WSW 22:23:50 84° SSE 22:24:08 70° E
MetOp-A 4.2 22:21:43 30° SSE 22:24:23 65° ENE 22:29:41 10° N
Cosmos 1486 Rocket 4.4 22:24:29 33° SE 22:25:58 40° E 22:30:53 10° NNE
ARGOS 3.5 22:24:14 31° SE 22:26:29 51° ENE 22:31:43 10° N
Cosmos 2208 Rocket 4.0 22:22:00 10° NNW 22:27:22 88° WSW 22:30:06 30° SSE
SPOT 5 3.3 22:26:16 34° ESE 22:27:46 45° ENE 22:32:32 10° N
Cosmos 1908 3.4 22:26:13 10° NNW 22:30:04 68° W 22:31:32 35° SSW
Lacrosse 5 3.1 22:28:07 10° NNW 22:32:33 30° NE 22:34:30 23° E
KORONAS-FOTON 4.2 22:31:42 24° SSW 22:33:50 60° W 22:37:35 10° N
Cosmos 1766 Rocket 3.7 22:31:58 23° SSW 22:34:38 71° W 22:38:58 10° N
Cosmos 2016 Rocket 4.0 22:28:37 10° N 22:34:49 66° E 22:37:34 34° SSE
SPOT 1/Viking Rocket 4.1 22:35:09 34° ESE 22:36:24 40° ENE 22:41:11 10° N
SL-16 R/B 2.8 22:31:32 10° NNW 22:37:01 52° WSW 22:40:16 24° S
Cosmos 1570 Rocket 4.4 22:33:55 10° NNW 22:39:06 60° WSW 22:41:43 29° S
Cosmos 1242 Rocket 3.2 22:36:48 10° NNW 22:40:25 52° W 22:41:26 38° SW
Atlas Centaur 2 2.3 22:40:42 10° W 22:43:05 28° SW 22:43:05 28° SW
USA 245 3.1 22:44:50 64° NE 22:44:50 64° NE 22:48:26 10° N
Cosmos 1328 Rocket 3.9 22:40:45 10° N 22:44:54 45° E 22:44:57 45° E
YAOGAN 11 4.1 22:45:55 57° SE 22:46:46 76° ENE 22:51:18 10° N
H-2A R/B 4.0 22:51:01 16° ENE 22:51:01 16° ENE 22:53:15 10° NNE
Cosmos 1743 Rocket 3.3 22:50:22 68° SE 22:50:42 73° E 22:55:01 10° N
Cosmos 1515 Rocket 4.3 22:46:53 10° NNE 22:50:33 36° ENE 22:50:33 36° ENE
Cosmos 1151 Rocket 4.3 22:47:21 10° NNE 22:50:35 27° ENE 22:50:35 27° ENE
Delta 2 Rocket 4.1 22:48:13 10° WSW 22:53:58 84° NNW 22:58:13 19° ENE
Cosmos 2233 Rocket 4.4 22:53:18 10° N 22:59:07 42° E 23:00:00 40° E
Cosmos 2228 Rocket 3.1 22:54:57 10° N 22:59:30 64° E 22:59:34 64° E
SL-08 RB Rocket 3.6 23:00:01 69° S 23:00:35 87° WSW 23:05:12 10° NNW
Terra 2.8 23:02:54 32° ENE 23:02:54 32° ENE 23:06:57 10° N
ERS-1 Rocket 4.1 23:01:46 24° SSW 23:04:03 37° W 23:08:42 10° NNW
USA 234 3.8 22:58:23 10° NNE 23:04:46 58° NW 23:11:08 10° WSW
Cosmos 468 Rocket 3.9 23:00:17 10° NNW 23:05:25 82° WSW 23:06:13 63° S
Meteor 1-11 4.2 23:06:01 56° SSE 23:07:15 74° E 23:13:03 10° NNE
Cosmos 1503 Rocket 4.2 23:12:35 53° ENE 23:12:35 53° ENE 23:17:04 10° NNE
Cosmos 1447 Rocket 4.4 23:14:04 56° SSE 23:15:26 74° E 23:21:46 10° N
Cosmos 332 Rocket 3.7 23:10:36 10° NNW 23:15:30 79° WSW 23:15:45 76° SW
Cosmos 1626 3.8 23:19:15 28° NNE 23:19:15 28° NNE 23:21:10 10° NNE
Cosmos 2058 3.5 23:21:05 53° NNE 23:21:05 53° NNE 23:24:21 10° N
H-2A R/B 2.1 23:19:43 64° SSW 23:20:26 75° WSW 23:25:51 10° NNW
Sakura Rocket 3.9 23:15:01 10° W 23:22:39 62° S 23:22:48 62° S
Meteor 2-10 4.4 23:21:00 10° NNW 23:26:37 67° W 23:27:34 57° SW
Cosmos 1726 3.8 23:23:54 10° NNW 23:26:41 28° WNW 23:26:41 28° WNW
Meteor 1-27 4.1 23:22:03 10° N 23:27:51 73° E 23:28:05 72° ESE
Cosmos 2263 Rocket 2.4 23:28:33 42° SW 23:30:20 64° WNW 23:35:53 10° NNE
Cosmos 1300 4.2 23:27:43 10° NNW 23:30:38 34° WNW 23:30:38 34° WNW
CZ-4B R/B 4.4 23:27:42 10° NNE 23:31:26 38° ENE 23:31:26 38° ENE
RESURS DK-1 3.6 23:29:40 10° NW 23:32:49 37° WNW 23:32:49 37° WNW
Cosmos 2285 Rocket 4.2 23:40:12 10° N 23:46:25 55° ENE 23:46:33 55° ENE
Cosmos 2151 4.3 23:47:34 36° WNW 23:47:34 36° WNW 23:51:11 10° NNW
